Weather History for Storm Lake, IA

Change the Weather History Date:

Friday, November 16, 2012

  Actual Average Record
Temperature  
Mean Temperature 36 °F -  
Max Temperature 50 °F 44 °F 62 °F (2001)
Min Temperature 23 °F 27 °F 1 °F (1997)
Degree Days  
Heating Degree Days 28    
Moisture  
Dew Point 24 °F    
Average Humidity 65    
Maximum Humidity 81    
Minimum Humidity 40    
Precipitation  
Precipitation 0.00 in - - ()
Sea Level Pressure  
Sea Level Pressure 30.37 in    
Wind  
Wind Speed 9 mph (SE)    
Max Wind Speed 14 mph    
Max Gust Speed -    
Visibility 10 miles    
Events      
Averages and records for this station are not official NWS values.
T = Trace of Precipitation, MM = Missing Value Source: NWS Daily Summary

Daily Weather History Graph

Daily Weather History Graph

Search for Another Location

Airport:

Trip Planner

Search our weather history database for the weather conditions in past years. The results will help you decide how hot, cold, wet, or windy it might be!

Date:

Astronomy

Nov. 16, 2012 Rise Set
Actual Time 7:14 AM CST 4:57 PM CST
Civil Twilight 6:43 AM CST 5:27 PM CST
Nautical Twilight 6:09 AM CST 6:01 PM CST
Astronomical Twilight 5:36 AM CST 6:35 PM CST
Moon 10:10 AM CST (11/16) 7:56 PM CST (11/16)
Length of Visible Light 10h 43m
Length of Day
9h 42m
Waxing Crescent, 12% of the Moon is Illuminated
Nov 16
Waxing Crescent
Nov 20
First Quarter
Nov 28
Full
Dec 6
Last Quarter
Dec 13
New

Hourly Weather History & Observations

Time (CST) Temp. Windchill Dew Point Humidity Pressure Visibility Wind Dir Wind Speed Gust Speed Precip Events Conditions
12:15 AM 26.6 °F 16.8 °F 21.2 °F 80% 30.43 in 10.0 mi North 10.4 mph - N/A   Clear
12:35 AM 26.6 °F 17.5 °F 21.2 °F 80% 30.44 in 10.0 mi NNE 9.2 mph - N/A   Clear
12:55 AM 26.6 °F 18.2 °F 21.2 °F 80% 30.44 in 10.0 mi NNE 8.1 mph - N/A   Clear
1:15 AM 26.6 °F 16.8 °F 19.4 °F 74% 30.44 in 10.0 mi NNE 10.4 mph - N/A   Clear
1:35 AM 26.6 °F 17.5 °F 19.4 °F 74% 30.43 in 10.0 mi NNE 9.2 mph - N/A   Clear
1:55 AM 26.6 °F 16.8 °F 19.4 °F 74% 30.43 in 10.0 mi NNE 10.4 mph - N/A   Clear
2:15 AM 26.6 °F 16.8 °F 19.4 °F 74% 30.43 in 10.0 mi NNE 10.4 mph - N/A   Clear
2:35 AM 26.6 °F 15.7 °F 19.4 °F 74% 30.43 in 10.0 mi NNE 12.7 mph - N/A   Clear
2:55 AM 26.6 °F 17.5 °F 19.4 °F 74% 30.44 in 10.0 mi NNE 9.2 mph - N/A   Clear
3:15 AM 24.8 °F 14.6 °F 19.4 °F 80% 30.44 in 10.0 mi NNE 10.4 mph - N/A   Clear
3:35 AM 26.6 °F 18.2 °F 19.4 °F 74% 30.43 in 10.0 mi NE 8.1 mph - N/A   Clear
3:55 AM 24.8 °F 15.3 °F 19.4 °F 80% 30.43 in 10.0 mi NNE 9.2 mph - N/A   Clear
4:15 AM 24.8 °F 16.1 °F 17.6 °F 74% 30.43 in 10.0 mi NNE 8.1 mph - N/A   Clear
4:35 AM 24.8 °F 16.1 °F 17.6 °F 74% 30.42 in 10.0 mi NE 8.1 mph - N/A   Clear
4:55 AM 24.8 °F 16.1 °F 17.6 °F 74% 30.42 in 10.0 mi NE 8.1 mph - N/A   Clear
5:15 AM 24.8 °F 15.3 °F 17.6 °F 74% 30.42 in - NE 9.2 mph - N/A   Clear
5:35 AM 24.8 °F 15.3 °F 17.6 °F 74% 30.42 in 10.0 mi NE 9.2 mph - N/A   Clear
5:55 AM 24.8 °F 16.1 °F 17.6 °F 74% 30.42 in 10.0 mi ENE 8.1 mph - N/A   Clear
6:15 AM 24.8 °F 16.1 °F 17.6 °F 74% 30.41 in 10.0 mi ENE 8.1 mph - N/A   Clear
6:35 AM 23.0 °F 15.8 °F 15.8 °F 74% 30.41 in 10.0 mi ENE 5.8 mph - N/A   Clear
6:55 AM 23.0 °F 14.7 °F 15.8 °F 74% 30.41 in 10.0 mi ENE 6.9 mph - N/A   Clear
7:15 AM 23.0 °F 14.7 °F 15.8 °F 74% 30.42 in 10.0 mi ENE 6.9 mph - N/A   Clear
7:35 AM 23.0 °F 14.7 °F 15.8 °F 74% 30.42 in 10.0 mi East 6.9 mph - N/A   Clear
7:55 AM 24.8 °F 17.9 °F 17.6 °F 74% 30.42 in 10.0 mi East 5.8 mph - N/A   Clear
8:15 AM 26.6 °F 19.1 °F 19.4 °F 74% 30.43 in 10.0 mi East 6.9 mph - N/A   Clear
8:35 AM 26.6 °F 20.0 °F 19.4 °F 74% 30.43 in 10.0 mi ENE 5.8 mph - N/A   Clear
8:55 AM 28.4 °F 22.2 °F 21.2 °F 74% 30.43 in 10.0 mi East 5.8 mph - N/A   Clear
9:15 AM 32.0 °F 27.5 °F 19.4 °F 60% 30.44 in 10.0 mi ESE 4.6 mph - N/A   Clear
9:35 AM 32.0 °F 26.4 °F 19.4 °F 60% 30.44 in 10.0 mi SE 5.8 mph - N/A   Clear
9:55 AM 33.8 °F 28.6 °F 21.2 °F 60% 30.44 in 10.0 mi SE 5.8 mph - N/A   Clear
10:15 AM 35.6 °F 29.2 °F 21.2 °F 56% 30.44 in 10.0 mi SSE 8.1 mph - N/A   Clear
10:35 AM 37.4 °F 32.1 °F 23.0 °F 56% 30.44 in 10.0 mi SSE 6.9 mph - N/A   Clear
10:55 AM 39.2 °F 34.2 °F 24.8 °F 56% 30.44 in 10.0 mi South 6.9 mph - N/A   Clear
11:15 AM 39.2 °F 33.0 °F 24.8 °F 56% 30.43 in 10.0 mi South 9.2 mph - N/A   Clear
11:35 AM 41.0 °F - 26.6 °F 57% 30.42 in 10.0 mi North - - N/A   Clear
11:55 AM 42.8 °F - 26.6 °F 53% 30.42 in 10.0 mi North - - N/A   Clear
12:15 PM 44.6 °F - 24.8 °F 46% 30.40 in 10.0 mi North - - N/A   Clear
12:35 PM 44.6 °F 39.7 °F 26.6 °F 49% 30.39 in 10.0 mi SSW 9.2 mph - N/A   Clear
12:55 PM 46.4 °F 42.4 °F 26.6 °F 46% 30.38 in 10.0 mi South 8.1 mph - N/A   Clear
1:15 PM 48.2 °F - 28.4 °F 46% 30.38 in 10.0 mi South 10.4 mph - N/A   Clear
1:35 PM 48.2 °F - 26.6 °F 43% 30.37 in 10.0 mi SSW 11.5 mph - N/A   Clear
1:55 PM 48.2 °F - 26.6 °F 43% 30.36 in 10.0 mi South 9.2 mph - N/A   Clear
2:15 PM 50.0 °F - 26.6 °F 40% 30.35 in 10.0 mi SSW 11.5 mph - N/A   Clear
2:35 PM 50.0 °F - 26.6 °F 40% 30.34 in 10.0 mi South 10.4 mph - N/A   Clear
2:55 PM 50.0 °F - 26.6 °F 40% 30.34 in 10.0 mi South 10.4 mph - N/A   Clear
3:15 PM 50.0 °F - 26.6 °F 40% 30.33 in 10.0 mi South 11.5 mph - N/A   Clear
3:35 PM 50.0 °F - 26.6 °F 40% 30.32 in 10.0 mi South 12.7 mph - N/A   Clear
3:55 PM 50.0 °F - 28.4 °F 43% 30.32 in 10.0 mi SSE 11.5 mph - N/A   Clear
4:15 PM 48.2 °F - 28.4 °F 46% 30.32 in 10.0 mi South 11.5 mph - N/A   Clear
4:35 PM 46.4 °F 41.1 °F 28.4 °F 50% 30.31 in 10.0 mi South 11.5 mph - N/A   Clear
4:55 PM 44.6 °F 38.8 °F 28.4 °F 53% 30.31 in 10.0 mi SSE 11.5 mph - N/A   Clear
5:15 PM 42.8 °F 37.0 °F 28.4 °F 57% 30.30 in 10.0 mi SSE 10.4 mph - N/A   Clear
5:35 PM 42.8 °F 36.6 °F 28.4 °F 57% 30.30 in 10.0 mi SSE 11.5 mph - N/A   Clear
5:55 PM 41.0 °F 34.3 °F 28.4 °F 61% 30.30 in 10.0 mi SSE 11.5 mph - N/A   Clear
6:15 PM 42.8 °F 36.2 °F 28.4 °F 57% 30.30 in 10.0 mi SSE 12.7 mph - N/A   Clear
6:35 PM 39.2 °F 32.5 °F 28.4 °F 65% 30.30 in 10.0 mi SSE 10.4 mph - N/A   Clear
6:55 PM 37.4 °F 29.8 °F 28.4 °F 70% 30.30 in 10.0 mi SSE 11.5 mph - N/A   Clear
7:15 PM 39.2 °F 32.0 °F 28.4 °F 65% 30.30 in 10.0 mi SSE 11.5 mph - N/A   Clear
7:55 PM 39.2 °F 31.6 °F 28.4 °F 65% 30.29 in 10.0 mi SSE 12.7 mph - N/A   Clear
8:15 PM 35.6 °F 28.0 °F 28.4 °F 75% 30.29 in 10.0 mi South 10.4 mph - N/A   Clear
8:35 PM 35.6 °F 28.6 °F 26.6 °F 70% 30.29 in 10.0 mi South 9.2 mph - N/A   Clear
8:55 PM 33.8 °F 25.3 °F 26.6 °F 75% 30.29 in 10.0 mi South 11.5 mph - N/A   Clear
9:15 PM 33.8 °F 25.8 °F 26.6 °F 75% 30.29 in 10.0 mi South 10.4 mph - N/A   Clear
9:55 PM 35.6 °F 27.5 °F 28.4 °F 75% 30.29 in 10.0 mi South 11.5 mph - N/A   Clear
10:15 PM 33.8 °F 25.3 °F 28.4 °F 81% 30.28 in 10.0 mi South 11.5 mph - N/A   Clear
10:35 PM 33.8 °F 24.3 °F 28.4 °F 81% 30.28 in 10.0 mi South 13.8 mph - N/A   Clear
10:55 PM 35.6 °F 27.5 °F 28.4 °F 75% 30.28 in 10.0 mi South 11.5 mph - N/A   Clear
11:15 PM 33.8 °F 24.3 °F 28.4 °F 81% 30.29 in 10.0 mi South 13.8 mph - N/A   Clear
11:35 PM 33.8 °F 24.8 °F 28.4 °F 81% 30.28 in 10.0 mi South 12.7 mph - N/A   Clear
11:55 PM 33.8 °F 24.8 °F 28.4 °F 81% 30.29 in 10.0 mi South 12.7 mph - N/A   Clear